Regional Weather Roundup
Issued by NWS State College, PA

Home | Current Version | Previous Version | Graphics & Text | Print | Product List | Glossary Off
Versions: 1 2 3 4 5 6 7 8 9 10 11 12 13 14 15 16 17 18 19 20 21 22 23 24 25 26 27 28 29 30 31 32 33 34 35 36 37 38 39 40 41 42 43 44 45 46 47 48 49 50

000
ASUS41 KCTP 301610
RWRCTP

REGIONAL WEATHER ROUNDUP
NATIONAL WEATHER SERVICE STATE COLLEGE PA
1200 PM EDT WED JUL 30 2014

Note: "fair" indicates few or no clouds below 12,000 feet with no
significant weather and/or obstructions to visibility.

* = STATION THAT DOES NOT REPORT PRECIPITATION /E.G. RAIN...SNOW...ETC/
    THUNDER OR FOG.

PAZ002>004-007>009-013>016-020>023-029>032-301700-
WESTERN PENNSYLVANIA

CITY           SKY/WX    TMP DP  RH WIND       PRES   REMARKS
ERIE           MOSUNNY   72  57  60 W12       30.00S
MEADVILLE      PTSUNNY   68  58  70 W9        30.03S
FRANKLIN*      PTSUNNY   68  55  64 W8        30.05F
NEW CASTLE     FAIR      72  59  63 CALM      30.05S
BEAVER COUNTY  PTSUNNY   70  59  68 SW5       30.06S
BUTLER*        PTSUNNY   68  57  68 SW6       30.08S
PITTSBURGH INT PTSUNNY   69  57  65 W9        30.06S
PITTSBURGH     MOSUNNY   69  55  60 SW12      30.06F
INDIANA*       MOSUNNY   66  55  68 W12G20    30.11S
LATROBE        MOSUNNY   68  57  68 SW12      30.09F
WASHINGTON CO* PTSUNNY   70  57  64 SW10      30.08F
$$

PAZ004>006-010>012-017>019-024>028-033>037-041-042-045-046-049>053-301700-
CENTRAL PENNSYLVANIA

CITY           SKY/WX    TMP DP  RH WIND       PRES   REMARKS
BRADFORD       CLOUDY    56  54  93 S9        30.06S
DUBOIS         CLOUDY    65  56  72 SW7       30.06S
CLEARFIELD     MOSUNNY   68  54  60 SW10      30.07S
JOHNSTOWN      PTSUNNY   63  52  67 SW9G18    30.10S
ALTOONA        CLOUDY    67  53  61 SW5       30.10R
STATE COLLEGE  PTSUNNY   68  54  60 SW6       30.07F
WILLIAMSPORT   MOSUNNY   70  55  59 SW7       30.05F
SELINSGROVE    MOSUNNY   72  56  57 VRB6      30.06F
FT INDIANTOWN  MOSUNNY   72  55  55 VRB3      30.06F
CAPITAL CITY   MOSUNNY   71  52  50 VRB3      30.07S
HARRISBURG     SUNNY     74  55  51 CALM      30.06F
YORK           SUNNY     72  52  49 MISG      30.07F
$$

PAZ038>040-043-044-047-048-054-055-060>062-067>071-301700-
EASTERN PENNSYLVANIA

CITY           SKY/WX    TMP DP  RH WIND       PRES   REMARKS
SCRANTON       SUNNY     71  49  45 VRB6      30.05F
MOUNT POCONO   PTSUNNY   67  50  54 VRB6      30.08S
ALLENTOWN      SUNNY     73  51  46 W7        30.05F
QUAKERTOWN*    SUNNY     72  54  53 SW3       30.07S
READING        SUNNY     74  55  51 VRB5      30.05F
LANCASTER      SUNNY     71  56  58 VRB3      30.07F
COATESVILLE    SUNNY     72  54  53 NW7       30.08F
POTTSTOWN      SUNNY     72  51  47 SW6       30.07F
BLUE BELL      SUNNY     75  55  50 CALM      30.05S
DOYLESTOWN     SUNNY     73  52  47 VRB6      30.05S
WILLOW GROVE   NOT AVBL
NORTH PHILA    SUNNY     77  50  38 SW7       30.06F
PHILADELPHIA   MOSUNNY   75  50  41 SW8       30.05F
$$



USA.gov is the U.S. government's official web portal to all federal, state and local government web resources and services.